This is the latest recevied weather packets stored in our database for station/object EA8BQU-10. If no packets are shown the sender has not sent any weather packets the latest 10 day(s).
| Time | Temp. | Humidity | Pressure | Rain* | Wind** | Luminosity | Snow |
|---|---|---|---|---|---|---|---|
| 1777872655 | 20.56° C | 100% | 1017 hPa | - | - | - | - |
| 1777871755 | 20.56° C | 100% | 1016.9 hPa | - | - | - | - |
| 1777870855 | 20.56° C | 100% | 1017 hPa | - | - | - | - |
| 1777869955 | 20.56° C | 99% | 1016.8 hPa | - | - | - | - |
| 1777869055 | 20.56° C | 100% | 1017 hPa | - | - | - | - |
| 1777868150 | 20.56° C | 99% | 1017.1 hPa | - | - | - | - |
| 1777867250 | 20.56° C | 100% | 1017 hPa | - | - | - | - |
| 1777866350 | 20.56° C | 100% | 1017 hPa | - | - | - | - |
| 1777865450 | 21.11° C | 97% | 1017.2 hPa | - | - | - | - |
| 1777863650 | 21.11° C | 99% | 1017.2 hPa | - | - | - | - |
| 1777847451 | 21.11° C | 98% | 1018.3 hPa | - | - | - | - |
| 1777843850 | 21.11° C | 98% | 1018 hPa | - | - | - | - |
| 1777842950 | 21.11° C | 97% | 1018 hPa | - | - | - | - |
| 1777842054 | 21.11° C | 96% | 1017.8 hPa | - | - | - | - |
| 1777840249 | 21.67° C | 96% | 1017.3 hPa | - | - | - | - |
| 1777839349 | 21.67° C | 95% | 1017.1 hPa | - | - | - | - |
| 1777838449 | 21.67° C | 98% | 1017 hPa | - | - | - | - |
| 1777836648 | 21.67° C | 96% | 1016.9 hPa | - | - | - | - |
| 1777833048 | 22.78° C | 94% | 1016.5 hPa | - | - | - | - |
| 1777832147 | 22.78° C | 88% | 1016.5 hPa | - | - | - | - |
| 1777831246 | 22.78° C | 87% | 1016.5 hPa | - | - | - | - |
| 1777827649 | 23.33° C | 86% | 1016.4 hPa | - | - | - | - |
| 1777825849 | 22.78° C | 86% | 1016.5 hPa | - | - | - | - |
| 1777824049 | 22.22° C | 88% | 1016.6 hPa | - | - | - | - |
| 1777823149 | 22.78° C | 87% | 1016.6 hPa | - | - | - | - |
* Rain since midnight (hover to see other rain measurements)
** Current wind speed in m/s (hover to see current wind gust speed)